London, United Kingdom

7:15 PM GMT on February 22, 2017 (GMT +0000)
Heathrow

Weather History for EGLL - October, 2010

Change the Weather History Date:

Friday, October 1, 2010

  Actual Average Record
Temperature  
Mean Temperature 57 °F -  
Max Temperature 60 °F 58 °F 82 °F (2011)
Min Temperature 54 °F 46 °F 46 °F (2000)
Degree Days  
Heating Degree Days 8    
Growing Degree Days 7 (Base 50)    
Moisture  
Dew Point 55 °F    
Average Humidity 90    
Maximum Humidity 96    
Minimum Humidity 82    
Precipitation  
Precipitation 0.35 in - - ()
Sea Level Pressure  
Sea Level Pressure 29.62 in    
Wind  
Wind Speed 10 mph ()    
Max Wind Speed 21 mph    
Max Gust Speed -    
Visibility 6.3 miles    
Events Rain    
Averages and records for this station are not official NWS values.
T = Trace of Precipitation, MM = Missing Value Source: Averaged Metar Reports

Daily Weather History Graph

Daily Weather History Graph

Search for Another Location

Airport or City:

Trip Planner

Search our weather history database for the weather conditions in past years. The results will help you decide how hot, cold, wet, or windy it might be!

Date:

Astronomy

Oct. 01, 2010 Rise Set
Actual Time 7:02 AM BST 6:39 PM BST
Civil Twilight 6:28 AM BST 7:13 PM BST
Nautical Twilight 5:50 AM BST 7:51 PM BST
Astronomical Twilight 5:10 AM BST 8:31 PM BST
Moon 11:44 PM BST (10/1) 3:22 PM BST (10/1)
Length of Visible Light 12h 44m
Length of Day
11h 37m
Waning Gibbous, 47% of the Moon is Illuminated
Oct 1
Waning Gibbous
Oct 7
New
Oct 14
First Quarter
Oct 23
Full
Oct 30
Last Quarter

Hourly Weather History & Observations

Time (BST) Temp. Dew Point Humidity Pressure Visibility Wind Dir Wind Speed Gust Speed Precip Events Conditions
12:20 AM 55.4 °F 50.0 °F 82% 29.83 in - SSE 6.9 mph - N/A   Clear
12:50 AM 55 °F 52 °F 86% 29.83 in 10 mi SSE 8.1 mph - - Rain Light Rain Showers
12:50 AM 55.4 °F 51.8 °F 88% 29.83 in 6.2 mi SSE 8.1 mph - N/A Rain Light Rain
1:20 AM 55.4 °F 51.8 °F 88% 29.83 in 6.2 mi SSE 8.1 mph - N/A Rain Light Rain
1:50 AM 55.4 °F 51.8 °F 88% 29.80 in 6.2 mi SSE 6.9 mph - N/A Rain Light Rain
2:20 AM 55.4 °F 51.8 °F 88% 29.80 in - SSE 8.1 mph - N/A   Clear
2:50 AM 55.4 °F 51.8 °F 88% 29.80 in - SSE 6.9 mph - N/A   Clear
3:20 AM 55.4 °F 51.8 °F 88% 29.77 in 6.2 mi SSE 8.1 mph - N/A Rain Light Rain
3:50 AM 56 °F 53 °F 86% 29.76 in 16 mi SSE 9.2 mph - - Rain Rain
3:50 AM 55.4 °F 51.8 °F 88% 29.77 in - SSE 9.2 mph - N/A   Clear
4:20 AM 55.4 °F 51.8 °F 88% 29.74 in 6.2 mi SSE 9.2 mph - N/A   Partly Cloudy
4:50 AM 57.2 °F 51.8 °F 82% 29.74 in 6.2 mi SSE 10.4 mph - N/A   Partly Cloudy
5:20 AM 57.2 °F 53.6 °F 88% 29.71 in 6.2 mi SSE 9.2 mph - N/A   Partly Cloudy
5:50 AM 57.2 °F 53.6 °F 88% 29.71 in 6.2 mi SSE 11.5 mph - N/A   Scattered Clouds
6:20 AM 57.2 °F 53.6 °F 88% 29.71 in 6.2 mi South 13.8 mph - N/A   Scattered Clouds
6:50 AM 58 °F 54 °F 82% 29.70 in 17 mi SSE 13.8 mph - - Rain Light Rain Showers
6:50 AM 57.2 °F 51.8 °F 82% 29.68 in 6.2 mi SSE 13.8 mph - N/A   Scattered Clouds
7:20 AM 57.2 °F 53.6 °F 88% 29.68 in 6.2 mi SSE 16.1 mph - N/A   Scattered Clouds
7:50 AM 57.2 °F 53.6 °F 88% 29.68 in 4.3 mi SSE 16.1 mph - N/A Rain Rain
8:20 AM 57.2 °F 53.6 °F 88% 29.65 in 6.2 mi SSE 15.0 mph - N/A Rain Light Rain
8:50 AM 57.2 °F 55.4 °F 94% 29.65 in 1.2 mi South 15.0 mph - N/A Rain Rain
9:20 AM 57.2 °F 55.4 °F 94% 29.65 in 3.1 mi SSE 13.8 mph - N/A Rain Light Rain
9:50 AM 57 °F 56 °F 94% 29.65 in 3 mi SSE 15.0 mph - - Rain Light Drizzle
9:50 AM 57.2 °F 55.4 °F 94% 29.65 in 5.0 mi SSE 15.0 mph - N/A Rain Light Rain
10:20 AM 57.2 °F 55.4 °F 94% 29.62 in 3.7 mi SSE 16.1 mph - N/A Rain Light Rain
10:50 AM 57.2 °F 55.4 °F 94% 29.62 in 5.0 mi SSE 13.8 mph - N/A Rain Light Rain
11:20 AM 59.0 °F 55.4 °F 88% 29.62 in 5.0 mi SSE 17.3 mph - N/A Rain Light Rain
11:50 AM 59.0 °F 55.4 °F 88% 29.59 in 6.2 mi South 15.0 mph - N/A Rain Rain
12:20 PM 59.0 °F 55.4 °F 88% 29.59 in 6.2 mi SSE 16.1 mph - N/A Rain Light Rain
12:50 PM 58 °F 56 °F 89% 29.59 in 12 mi South 20.7 mph - - Rain Rain
12:50 PM 59.0 °F 55.4 °F 88% 29.59 in 6.2 mi South 18.4 mph - N/A   Mostly Cloudy
1:20 PM 59.0 °F 55.4 °F 88% 29.56 in 6.2 mi South 17.3 mph - N/A Rain Light Rain
1:50 PM 59.0 °F 55.4 °F 88% 29.56 in 5.6 mi South 17.3 mph - N/A Rain Light Rain
2:20 PM 59.0 °F 55.4 °F 88% 29.53 in 6.2 mi South 17.3 mph - N/A Rain Light Rain
2:50 PM 59.0 °F 55.4 °F 88% 29.53 in 6.2 mi SSE 15.0 mph - N/A Rain Light Rain
3:20 PM 59.0 °F 55.4 °F 88% 29.53 in 3.1 mi South 13.8 mph - N/A Rain Light Rain
3:50 PM 58 °F 57 °F 94% 29.51 in 4 mi SSE 13.8 mph - - Rain Rain
3:50 PM 59.0 °F 55.4 °F 88% 29.50 in 5.6 mi SSE 13.8 mph - N/A Rain Rain
4:20 PM 59.0 °F 55.4 °F 88% 29.50 in 5.6 mi South 12.7 mph - N/A Rain Rain
4:50 PM 59.0 °F 57.2 °F 94% 29.47 in 6.2 mi SSE 12.7 mph - N/A Rain Rain
5:20 PM 59.0 °F 57.2 °F 94% 29.47 in 4.3 mi SSE 10.4 mph - N/A Rain Rain
5:50 PM 59.0 °F 57.2 °F 94% 29.47 in 6.2 mi SSE 10.4 mph - N/A Rain Light Rain
6:20 PM 59.0 °F 57.2 °F 94% 29.47 in 6.2 mi South 8.1 mph - N/A Rain Light Rain
6:50 PM 60 °F 59 °F 94% 29.48 in 7 mi South 6.9 mph - - Rain Rain
6:50 PM 59.0 °F 57.2 °F 94% 29.47 in 5.6 mi South 8.1 mph - N/A   Light Drizzle
7:20 PM 60.8 °F 59.0 °F 94% 29.47 in 3.7 mi SSW 8.1 mph - N/A Rain Light Rain
7:50 PM 60.8 °F 59.0 °F 94% 29.50 in 6.2 mi SSW 8.1 mph - N/A   Mostly Cloudy
8:20 PM 60.8 °F 59.0 °F 94% 29.50 in 6.2 mi SW 8.1 mph - N/A   Mostly Cloudy
8:50 PM 60.8 °F 59.0 °F 94% 29.50 in 3.7 mi West 12.7 mph - N/A Rain Rain
9:20 PM 60.8 °F 59.0 °F 94% 29.53 in 6.2 mi West 9.2 mph - N/A   Scattered Clouds
9:50 PM 59 °F 58 °F 96% 29.55 in 12 mi West 11.5 mph - - Rain Light Rain Showers
9:50 PM 59.0 °F 57.2 °F 94% 29.53 in 6.2 mi West 12.7 mph - N/A   Mostly Cloudy
10:20 PM 59.0 °F 57.2 °F 94% 29.56 in 6.2 mi West 13.8 mph - N/A   Mostly Cloudy
10:50 PM 59.0 °F 55.4 °F 88% 29.56 in 6.2 mi West 12.7 mph - N/A   Mostly Cloudy
11:20 PM 57.2 °F 53.6 °F 88% 29.59 in 6.2 mi West 12.7 mph - N/A   Partly Cloudy
11:50 PM 55.4 °F 53.6 °F 94% 29.59 in - West 9.2 mph - N/A   Clear